[[{"header":{"parameterUnit":"m.s-1","parameterCategory":1,"la1":30.2991,"la2":30.254,"lo1":-89.0895,"lo2":-89.0444,"dy":0.0017,"dx":0.0017,"nx":28,"ny":28,"refTime":"2025-03-22T03:00:00:Z","depth":0,"parameterNumber":2,"parameterNumberName":"U-component_of_WINDS"},"data":[0,0,0,0,0,0,0,0,0,0,0,0,0,0,0,0,0,0,0,0,0,0,0,0,0,0,0,0,0,0,0,0,0,0,0,0,0,0,0,0,0,0,0,0,0,0,0,0,0,0,0,0,0,0,0,0,0,0,0.246,0.246,0,0.2535,0.2536,0.2537,0.2574,0.2574,0.2574,0.2574,0.265,0.2652,0.2654,0,0,0,0,0,0,0,0,0,0,0,0,0,0.2347,0.2349,0.246,0.2461,0.2462,0.2535,0.2536,0.2537,0.2574,0.2574,0.2574,0.2574,0.265,0.2652,0.2654,0,0,0,0,0,0,0,0,0,0,0,0,0,0.2406,0.2349,0.2459,0.2489,0.2493,0.2534,0.2536,0.2537,0.2574,0.2574,0.2574,0.2574,0.2649,0.2652,0.2655,0.2673,0,0,0.2664,0.2665,0,0,0,0,0,0,0,0,0.2403,0.241,0.2484,0.2487,0.2491,0.2545,0.2524,0.2582,0.2574,0.2543,0.2574,0.2574,0.2615,0.2621,0.2635,0.2676,0.2679,0.2664,0.2666,0.2667,0.2668,0,0,0,0,0,0,0,0.2399,0.2407,0.2489,0.2485,0.2489,0.2498,0.2507,0.2535,0.2578,0.2546,0.2549,0.2557,0.2617,0.2632,0.2637,0.2681,0.2664,0.2667,0.2669,0.267,0.2739,0.2739,0,0,0,0,0,0,0.239,0.2404,0.2487,0.2492,0.2446,0.25,0.251,0.2528,0.2578,0.2586,0.2557,0.2559,0.2627,0.2634,0.264,0.2664,0.2667,0.267,0.2672,0.2739,0.2739,0.2739,0,0,0,0,0,0,0.2387,0.2397,0.2484,0.2448,0.246,0.2502,0.2522,0.2529,0.2544,0.2586,0.2594,0.2565,0.2627,0.2636,0.2664,0.2667,0.2671,0.2674,0.2739,0.2739,0.2739,0.2712,0,0,0,0,0,0,0.2384,0.2396,0.2404,0.2448,0.2462,0.2507,0.2522,0.2531,0.2549,0.2552,0.2595,0.2603,0.2628,0.2659,0.2667,0.2671,0.2676,0.2739,0.2739,0.2739,0.2713,0.2711,0.2709,0,0,0,0,0,0.238,0.2393,0.2404,0.2414,0.2473,0.2507,0.2515,0.2544,0.2549,0.2557,0.2584,0.2601,0.2665,0.2662,0.2671,0.2676,0.2739,0.2739,0.2739,0.2713,0.2711,0.2709,0,0,0,0,0,0,0.2347,0.2399,0.2412,0.244,0.2469,0.2514,0.2525,0.2541,0.2569,0.2571,0.2605,0.2615,0.264,0.2661,0.2656,0.2695,0.2704,0.2706,0.2681,0.2679,0.2678,0.2672,0.2679,0,0,0,0,0,0.2343,0.2368,0.2412,0.2432,0.2446,0.2482,0.2499,0.2519,0.255,0.2562,0.2592,0.2621,0.2648,0.2665,0.2692,0.2716,0.2725,0.2723,0.2722,0.272,0.2722,0.2735,0.2735,0.274,0.274,0.274,0,0,0.2335,0.2367,0.238,0.2426,0.2451,0.2475,0.2493,0.2517,0.2535,0.2566,0.2595,0.2617,0.2652,0.2678,0.2691,0.2696,0.2722,0.272,0.2719,0.2721,0.2735,0.2735,0.2734,0.274,0.274,0.274,0,0,0.2333,0.2359,0.2379,0.2404,0.2441,0.2465,0.247,0.2512,0.2528,0.2557,0.258,0.2602,0.2647,0.2671,0.2689,0.2695,0.2711,0.2703,0.2694,0.2707,0.2707,0.2707,0.2708,0.2709,0.2704,0.2704,0.2704,0,0.2318,0.2356,0.2387,0.241,0.243,0.2458,0.2478,0.25,0.2544,0.2557,0.2562,0.2619,0.2645,0.2677,0.2678,0.2692,0.2697,0.2698,0.2705,0.2705,0.2705,0.2707,0.2708,0.2702,0.2703,0.2703,0.2703,0,0.2336,0.2361,0.2373,0.2415,0.2435,0.2457,0.249,0.2507,0.2525,0.2548,0.2577,0.2608,0.2642,0.2651,0.2669,0.2685,0.2687,0.2698,0.2707,0.2703,0.2705,0.2706,0.2701,0.2701,0.2701,0.2702,0,0,0.2316,0.2374,0.2378,0.2397,0.244,0.246,0.2482,0.2515,0.2529,0.2558,0.2577,0.2614,0.2624,0.2645,0.2665,0.2676,0.2678,0.2686,0.2687,0.2683,0.2698,0.2689,0.269,0.2689,0.269,0.269,0.2695,0,0.232,0.2362,0.239,0.242,0.2444,0.2471,0.249,0.2518,0.254,0.2563,0.2587,0.2613,0.2625,0.2637,0.2649,0.2675,0.2682,0.2675,0.2707,0.2708,0.2698,0.2691,0.2683,0.2686,0.2696,0.2696,0.2696,0,0.2331,0.2359,0.2392,0.2431,0.2442,0.2459,0.2491,0.2513,0.2545,0.256,0.2582,0.2603,0.2626,0.2633,0.2666,0.2661,0.2676,0.269,0.2691,0.2695,0.2702,0.2695,0.2688,0.2688,0.2698,0.2698,0.2698,0,0.2312,0.2359,0.2384,0.24,0.2447,0.2458,0.2478,0.251,0.2527,0.2555,0.2567,0.2597,0.2613,0.2636,0.2664,0.2666,0.2694,0.2703,0.2707,0.2706,0.2712,0.2711,0.2706,0.2721,0.2721,0.2721,0.2721,0,0.2314,0.2333,0.2377,0.2393,0.2414,0.2446,0.2466,0.2488,0.2516,0.2536,0.2561,0.2579,0.2615,0.2637,0.2659,0.2683,0.269,0.2703,0.2708,0.2701,0.2699,0.2711,0.2711,0.2721,0.2721,0.2721,0.2721,0,0.2298,0.2328,0.2358,0.2399,0.241,0.2424,0.246,0.2476,0.2499,0.2523,0.2531,0.2567,0.2594,0.2624,0.2662,0.2677,0.2699,0.2707,0.2688,0.2691,0.2694,0.2693,0.2697,0.2698,0.2711,0.2711,0.2711,0,0.2297,0.2312,0.2356,0.2371,0.239,0.2414,0.2433,0.2464,0.2481,0.2518,0.2529,0.2559,0.2584,0.2626,0.2655,0.2684,0.2693,0.2692,0.2697,0.2689,0.2693,0.2691,0.2693,0.269,0.269,0.269,0.269,0,0.2292,0.2306,0.2332,0.2362,0.2383,0.2408,0.2435,0.2446,0.2482,0.25,0.2528,0.2548,0.2586,0.2614,0.2646,0.2666,0.2684,0.2688,0.269,0.2682,0.2671,0.2677,0.2684,0.2688,0.2688,0.2688,0.2688,0.2688,0.2284,0.2298,0.2331,0.2358,0.2381,0.2405,0.2422,0.2446,0.2471,0.2504,0.2521,0.2549,0.2579,0.2624,0.2643,0.2665,0.2671,0.2674,0.2675,0.2676,0.2673,0.2667,0.2671,0.2671,0.2671,0.2672,0.2672,0,0.228,0.2302,0.2327,0.2363,0.2384,0.2399,0.2428,0.2445,0.2469,0.2496,0.252,0.2552,0.258,0.2611,0.264,0.2652,0.266,0.2658,0.2658,0.2662,0.2667,0.2662,0.2651,0.2651,0.2651,0.2651,0.2651,0.2651,0.2281,0.2306,0.2324,0.236,0.2382,0.241,0.2425,0.2447,0.2468,0.2503,0.2526,0.2546,0.2575,0.2606,0.2632,0.264,0.265,0.2645,0.2656,0.266,0.2662,0.2663,0.2659,0.2647,0.2647,0.2649,0.2649,0.2649]},{"header":{"parameterUnit":"m.s-1","parameterCategory":1,"la1":30.2991,"la2":30.254,"lo1":-89.0895,"lo2":-89.0444,"dy":0.0017,"dx":0.0017,"nx":28,"ny":28,"refTime":"2025-03-22T03:00:00:Z","depth":0,"parameterNumber":3,"parameterNumberName":"V-component_of_WINDS"},"data":[0,0,0,0,0,0,0,0,0,0,0,0,0,0,0,0,0,0,0,0,0,0,0,0,0,0,0,0,0,0,0,0,0,0,0,0,0,0,0,0,0,0,0,0,0,0,0,0,0,0,0,0,0,0,0,0,0,0,4.8929,4.893,0,4.8985,4.8986,4.8987,4.8927,4.8924,4.8922,4.892,4.8974,4.8978,4.8981,0,0,0,0,0,0,0,0,0,0,0,0,0,4.8765,4.8768,4.8929,4.893,4.893,4.8985,4.8986,4.8987,4.8927,4.8924,4.8921,4.8919,4.8973,4.8977,4.8981,0,0,0,0,0,0,0,0,0,0,0,0,0,4.883,4.8769,4.8929,4.8907,4.8906,4.8985,4.8986,4.8987,4.8928,4.8924,4.8921,4.8917,4.8971,4.8977,4.8982,4.9084,0,0,4.8998,4.9001,0,0,0,0,0,0,0,0,4.8826,4.8836,4.891,4.8909,4.8908,4.8945,4.8948,4.902,4.8928,4.8919,4.892,4.8916,4.8967,4.8973,4.8991,4.9087,4.9089,4.8999,4.9002,4.9005,4.9006,0,0,0,0,0,0,0,4.8822,4.8833,4.8951,4.8911,4.891,4.8893,4.8899,4.8961,4.8962,4.892,4.8916,4.8923,4.8966,4.8986,4.8992,4.909,4.8999,4.9004,4.9007,4.9009,4.927,4.9274,0,0,0,0,0,0,4.8821,4.883,4.8949,4.8953,4.8858,4.8899,4.8905,4.8937,4.8961,4.8961,4.8926,4.892,4.8978,4.8985,4.8993,4.9113,4.9005,4.901,4.9013,4.9266,4.9271,4.9275,0,0,0,0,0,0,4.8817,4.8832,4.8947,4.889,4.8904,4.8905,4.8941,4.894,4.8959,4.8966,4.8965,4.8947,4.8976,4.8986,4.9062,4.9114,4.9012,4.9017,4.9262,4.9268,4.9273,4.9354,0,0,0,0,0,0,4.8813,4.8831,4.8871,4.8892,4.8907,4.9016,4.8945,4.8943,4.8969,4.8962,4.8985,4.8985,4.8974,4.9054,4.9067,4.9119,4.9021,4.9257,4.9265,4.9271,4.9346,4.9361,4.9374,0,0,0,0,0,4.8807,4.8891,4.8874,4.8888,4.8958,4.902,4.9028,4.9014,4.8974,4.9013,4.9017,4.8984,4.9106,4.9062,4.9077,4.9131,4.9254,4.9262,4.9271,4.934,4.9358,4.9374,0,0,0,0,0,0,4.8876,4.8894,4.8874,4.8968,4.8993,4.9009,4.9059,4.9034,4.907,4.9062,4.9042,4.9048,4.9128,4.9137,4.9088,4.923,4.9173,4.9185,4.9221,4.9238,4.9252,4.9247,4.9026,0,0,0,0,0,4.8903,4.8953,4.8965,4.9046,4.906,4.9058,4.9084,4.9071,4.9095,4.9105,4.9115,4.9139,4.9182,4.9211,4.9251,4.9348,4.935,4.9392,4.9406,4.9417,4.9427,4.9476,4.9494,4.9302,4.9302,4.9302,0,0,4.8957,4.8973,4.9006,4.9061,4.9078,4.9129,4.9067,4.9123,4.916,4.9114,4.9186,4.9194,4.9219,4.9305,4.9343,4.9315,4.948,4.9428,4.9437,4.944,4.9486,4.9504,4.9521,4.9308,4.9307,4.9306,0,0,4.9082,4.91,4.9169,4.9188,4.9215,4.9213,4.923,4.925,4.9253,4.9326,4.9291,4.9334,4.941,4.9428,4.9448,4.9578,4.9549,4.9592,4.9664,4.9712,4.9727,4.974,4.9784,4.9801,4.9602,4.9602,4.9602,0,4.9146,4.9222,4.9207,4.9266,4.929,4.9251,4.9319,4.9338,4.9377,4.9394,4.9362,4.9455,4.9469,4.9558,4.9589,4.9607,4.9624,4.9588,4.9726,4.9739,4.9751,4.9793,4.981,4.9607,4.9606,4.9606,4.9605,0,4.9298,4.9351,4.9403,4.9443,4.9473,4.9536,4.9529,4.9561,4.9545,4.9545,4.9618,4.9634,4.9675,4.9696,4.9681,4.9782,4.9763,4.9729,4.9671,4.9775,4.9814,4.983,4.9614,4.9612,4.961,4.9609,0,0,4.9468,4.9498,4.9517,4.9533,4.956,4.96,4.9661,4.9702,4.9729,4.9757,4.9806,4.987,4.9838,4.986,4.9847,4.989,4.9989,4.985,4.985,4.9873,5.0099,5.0123,5.0142,4.997,4.9973,4.9976,5.0096,0,4.9592,4.9698,4.9686,4.9786,4.9834,4.9797,4.9849,4.987,4.9872,4.9911,4.9912,4.9957,4.9913,4.9926,4.9966,4.9969,5.0034,4.996,5.0013,5.0015,5.0007,5.0163,5.0189,5.0302,5.0111,5.0114,5.0116,0,4.9751,4.9785,4.9891,4.9908,4.9928,4.9976,5.0011,5.005,5.0073,5.007,5.0095,5.0073,5.0132,5.0074,5.0153,5.0103,5.0124,5.0128,5.0132,5.0136,5.0071,5.0168,5.0337,5.0354,5.014,5.0138,5.0136,0,4.9862,4.9934,5.0006,5.0021,5.0045,5.0078,5.0089,5.0109,5.0134,5.0165,5.018,5.0218,5.0238,5.0267,5.0255,5.0215,5.0336,5.0277,5.0334,5.0334,5.036,5.0358,5.0533,5.0377,5.0376,5.0376,5.0376,0,5.0001,5.0067,5.0056,5.01,5.0171,5.0155,5.0226,5.0232,5.0249,5.0292,5.0263,5.0303,5.0287,5.0326,5.0317,5.0383,5.0392,5.0391,5.0387,5.0393,5.0393,5.0405,5.0396,5.0381,5.038,5.0379,5.0378,0,5.0137,5.0133,5.0208,5.0224,5.0229,5.0281,5.0293,5.0333,5.0332,5.0387,5.0399,5.0397,5.0441,5.0433,5.0482,5.0476,5.0558,5.0545,5.055,5.0547,5.0603,5.0597,5.079,5.0814,5.0644,5.0646,5.0647,0,5.0225,5.0275,5.0295,5.0322,5.0336,5.038,5.0405,5.0391,5.0418,5.0446,5.0483,5.0525,5.0557,5.063,5.0632,5.0668,5.0656,5.0721,5.0661,5.0664,5.0654,5.0651,5.0654,5.0732,5.0734,5.0736,5.0737,0,5.0381,5.0376,5.0415,5.0452,5.0483,5.0512,5.0537,5.0561,5.0548,5.058,5.0625,5.0651,5.07,5.0741,5.0775,5.0785,5.0758,5.0756,5.0771,5.0776,5.0776,5.0774,5.0581,5.0751,5.075,5.0749,5.0748,5.0748,5.0495,5.0536,5.0556,5.0599,5.0617,5.0641,5.0679,5.0683,5.0721,5.076,5.0749,5.08,5.0819,5.0862,5.0875,5.0913,5.0889,5.0911,5.0916,5.0921,5.0927,5.0771,5.092,5.0919,5.0919,5.0918,5.0918,0,5.0647,5.0659,5.0699,5.0735,5.0768,5.0741,5.0768,5.0797,5.0842,5.0863,5.0895,5.0946,5.0985,5.099,5.1027,5.1056,5.1045,5.1066,5.1063,5.1065,5.0948,5.093,5.1075,5.1075,5.1075,5.1075,5.1075,5.1075,5.0731,5.0799,5.0796,5.0871,5.0881,5.0932,5.0949,5.097,5.0986,5.1044,5.1077,5.108,5.1093,5.113,5.1165,5.1165,5.1179,5.1205,5.12,5.109,5.1074,5.1059,5.1043,5.1208,5.1208,5.1314,5.1315,5.1316]}]]